RH
8 9 8 9 15 20 23 24 23 21 21 25 32 33 33 34 34 32 33 35 30 23 20 22 25 26 27 28 28 27 26 28 31 30 29 31 33 35 37 37 39 40 41 40 40 41 39 37 35 35 38 37 36 40 42 38 34 33 33 33 34 34 34
9 10 9 9 12 17 24 25 21 22 25 27 32 34 33 35 36 33 33 36 36 28 20 21 24 25 26 26 27 27 25 26 28 27 28 29 30 33 37 39 40 40 39 39 40 42 41 39 36 34 36 39 36 38 40 38 34 33 33 33 33 33 34
10 11 11 10 11 14 21 24 23 26 28 27 31 34 34 35 34 31 31 35 38 32 23 23 24 23 24 25 25 26 26 25 26 26 27 29 31 33 35 38 40 41 39 39 40 42 41 39 37 34 35 39 38 38 38 37 35 32 31 32 31 30 32
11 12 10 11 12 12 17 24 27 27 26 28 32 32 31 33 34 32 31 32 35 31 23 23 26 24 26 28 26 26 27 25 25 26 26 29 31 32 34 37 40 41 40 40 41 43 42 40 37 36 38 40 39 38 37 36 35 31 29 32 33 31 31
12 12 10 9 10 12 15 22 25 26 27 30 33 32 29 31 33 34 32 30 31 30 22 19 23 25 25 28 30 31 30 26 25 24 25 27 30 33 35 36 39 40 40 40 42 44 43 40 37 38 41 42 40 39 37 35 33 32 31 32 33 31 31
12 11 11 8 9 11 13 18 21 26 30 30 31 33 32 32 32 30 30 31 30 30 27 20 20 24 23 24 27 29 30 29 27 24 23 26 30 33 34 35 36 38 40 41 42 44 43 39 37 38 39 40 38 36 37 37 34 33 34 35 33 32 35
14 10 10 10 9 9 11 15 19 24 30 28 28 33 33 33 33 29 29 31 29 30 30 22 18 22 22 21 23 24 26 28 27 25 24 24 28 30 30 32 33 35 39 41 42 45 43 38 37 38 37 37 37 35 36 37 37 37 37 39 38 36 37
18 15 13 11 11 9 10 13 15 20 26 25 25 31 32 31 32 32 31 32 31 32 30 21 17 20 19 19 21 21 23 26 26 27 27 26 27 29 28 28 31 33 36 40 42 44 43 38 36 37 36 36 37 37 37 37 39 41 42 44 45 41 39
24 23 20 16 13 12 10 10 12 16 21 23 24 29 32 30 30 33 33 31 32 34 29 20 16 18 18 19 21 21 22 25 26 27 30 28 27 29 28 27 29 31 33 37 41 42 41 37 34 33 34 35 36 37 38 38 39 41 44 45 48 49 48
25 24 22 18 15 14 12 10 11 12 14 19 23 27 30 29 31 33 33 31 32 32 29 21 15 16 18 20 23 22 22 26 28 29 30 28 28 30 30 29 31 32 35 39 41 41 40 37 33 31 30 31 34 36 37 38 40 42 45 46 49 54 56
23 22 21 18 16 16 14 12 10 11 12 13 18 23 24 25 31 34 31 32 33 31 29 24 17 16 17 18 21 23 23 25 29 31 30 28 29 31 31 32 34 36 40 42 40 40 38 35 32 30 29 29 30 32 33 37 39 41 45 49 50 51 54
24 23 22 20 19 18 17 14 12 10 11 11 13 17 16 20 30 34 29 30 32 32 32 28 20 17 18 17 18 21 24 24 25 28 30 29 30 31 31 33 35 38 41 42 39 38 36 33 32 31 30 29 29 29 30 33 37 40 43 47 47 47 54
27 25 24 22 21 22 20 19 16 13 13 12 11 12 11 14 23 27 28 31 31 29 29 25 18 16 17 17 17 18 22 23 23 27 31 30 30 31 30 32 34 37 40 40 38 37 35 33 33 30 29 29 29 29 30 32 35 38 41 44 45 49 57
32 30 29 25 22 24 24 21 18 17 17 15 13 11 11 12 14 17 23 29 28 24 22 19 16 16 15 14 16 17 19 21 23 27 29 29 30 30 29 30 32 34 35 36 36 36 34 33 32 30 28 28 29 30 32 34 35 38 42 45 48 52 55
38 34 33 31 26 24 25 23 20 18 18 17 16 13 12 12 12 12 15 20 21 20 20 17 16 16 15 14 15 16 18 20 22 25 27 27 29 30 28 28 32 35 34 33 34 34 32 31 30 30 29 29 30 34 36 36 37 40 45 48 49 52 53
39 35 34 34 31 27 26 25 22 20 18 18 17 17 15 13 12 12 13 14 14 16 17 17 15 15 15 14 14 16 20 21 22 25 27 27 29 31 31 29 33 36 33 30 30 32 31 31 31 31 30 30 32 37 41 42 42 44 46 48 49 50 50
39 37 34 33 32 33 32 27 23 20 18 17 16 16 17 15 14 14 13 11 12 13 14 13 12 13 13 12 12 15 19 21 24 26 28 28 29 32 33 33 34 37 37 35 35 36 36 37 36 35 35 37 38 41 44 45 45 44 45 49 50 48 48
41 39 36 36 37 37 32 24 20 18 16 16 15 14 14 15 14 14 14 14 14 14 13 12 13 14 14 12 12 15 18 21 25 27 27 28 29 31 33 34 35 37 37 37 37 39 40 40 41 42 43 44 43 43 44 44 42 41 43 48 50 49 51
43 42 42 45 43 37 29 24 22 20 17 16 16 16 16 16 15 14 14 16 16 15 16 16 16 16 17 16 15 16 17 20 24 27 27 28 29 30 34 37 37 35 34 33 36 40 41 40 40 42 43 42 43 43 43 41 40 38 39 45 50 51 51
45 47 48 48 42 34 30 29 26 24 22 19 17 17 19 19 17 15 13 14 14 15 17 18 17 17 18 17 16 17 17 19 23 26 27 27 28 30 33 35 35 35 33 31 32 36 37 38 38 40 41 43 44 44 42 38 35 33 35 41 47 48 47
45 48 48 46 43 38 34 35 34 31 29 26 22 20 18 17 17 15 14 15 14 13 15 16 16 17 17 15 15 17 19 20 24 27 28 28 29 30 33 35 34 34 32 31 32 34 35 35 36 38 41 43 41 39 36 32 30 30 32 37 42 44 45
45 46 47 49 49 44 42 44 42 37 33 30 28 25 21 19 18 16 15 16 15 15 18 18 16 16 16 14 14 17 20 21 24 27 29 29 30 32 33 34 34 34 33 32 33 36 38 36 34 34 36 37 35 33 31 31 32 33 35 38 41 43 44
43 44 48 54 55 52 53 55 48 41 36 31 29 29 25 20 20 20 20 18 15 17 21 20 17 16 15 14 16 20 23 24 25 28 30 30 32 33 33 33 34 35 34 33 33 37 39 37 34 33 32 32 33 32 32 34 35 36 38 40 41 41 41
41 45 49 54 57 59 62 58 51 46 40 36 36 34 26 21 21 21 21 19 18 18 20 19 17 16 15 16 21 24 25 27 30 31 32 32 33 35 35 35 35 34 33 34 35 36 35 33 33 34 34 34 34 35 36 36 37 38 40 41 41 40 40
38 44 48 50 54 61 62 56 52 48 42 39 39 35 29 27 27 23 20 19 19 19 19 18 18 19 20 23 25 26 27 30 33 34 34 34 36 37 36 34 33 32 33 34 35 34 32 33 35 35 36 36 37 38 38 38 39 40 40 41 42 42 43
36 41 47 49 53 60 61 56 52 48 44 43 42 38 36 35 32 27 23 20 20 20 20 20 22 23 23 24 26 28 30 31 33 35 35 35 36 35 34 32 33 33 33 33 33 33 33 34 36 38 38 39 40 40 39 40 40 41 41 41 42 43 46
35 42 48 51 55 60 61 60 57 53 51 49 47 43 41 39 38 36 30 24 22 23 22 23 25 24 24 26 28 30 31 31 33 34 35 35 35 33 31 32 34 35 35 34 34 35 35 36 37 39 40 41 41 41 41 41 42 42 40 41 42 44 49
34 39 45 49 52 56 60 63 62 58 55 52 50 48 46 45 46 46 40 31 27 26 26 26 25 25 28 31 32 31 31 32 33 34 34 34 34 33 33 35 36 36 36 35 35 36 38 40 42 43 43 43 43 43 44 45 45 44 43 44 47 50 53
34 36 40 43 45 51 59 63 62 58 55 52 51 50 49 49 50 50 46 38 34 33 32 29 28 31 36 38 37 35 33 34 35 36 37 36 34 34 36 37 38 38 37 36 36 38 41 43 44 45 45 44 44 44 46 48 50 51 51 52 54 57 60
37 39 42 43 46 53 63 68 65 61 59 56 54 53 53 53 54 54 50 45 41 41 39 36 36 40 43 45 44 41 39 40 40 38 38 38 38 38 37 37 40 41 39 38 39 42 44 45 45 46 46 45 47 49 49 50 54 59 60 57 56 58 62
41 45 45 46 53 63 70 72 70 66 63 61 60 60 59 58 57 55 54 54 52 50 49 47 46 47 48 49 49 48 46 47 45 42 41 41 41 41 40 39 41 43 41 41 42 44 46 47 48 49 48 47 49 53 55 54 58 63 61 56 55 58 63
47 51 50 52 64 74 76 73 71 68 65 63 62 61 59 59 57 56 57 59 58 55 54 54 54 52 51 51 50 52 53 54 51 48 47 46 45 45 44 44 44 45 46 45 46 47 48 49 50 51 51 50 51 54 57 58 60 61 58 56 59 63 65
52 53 54 60 70 77 78 75 74 73 70 66 63 61 60 59 59 60 60 60 58 55 54 54 53 53 54 53 52 54 57 60 59 56 53 51 50 49 48 47 46 47 47 47 47 49 50 51 52 53 52 53 53 56 61 63 62 59 58 59 62 64 63
55 54 57 67 76 81 83 80 78 77 74 69 66 64 63 61 61 62 63 62 59 56 54 53 53 55 57 56 55 55 58 60 60 58 56 55 54 52 51 51 50 50 50 50 50 51 52 52 53 53 53 54 57 61 65 66 62 60 62 63 62 61 60
62 59 62 70 78 83 86 84 81 79 76 72 69 68 66 63 62 64 66 66 64 61 60 60 60 61 60 58 55 56 57 58 57 57 57 57 57 57 56 54 53 54 54 54 53 52 52 51 51 52 54 56 59 63 67 67 65 65 65 63 58 56 55
68 65 65 69 78 85 87 86 84 81 77 74 72 71 70 68 68 68 70 72 70 68 68 69 68 66 64 61 58 57 56 56 56 56 55 55 58 60 57 53 54 57 58 58 56 52 51 52 53 54 56 57 58 61 65 67 66 65 63 58 53 50 49
69 68 65 69 78 84 86 85 84 83 80 77 75 73 73 73 73 71 71 73 74 72 70 69 68 65 63 63 62 61 60 60 59 58 57 57 58 59 58 56 57 59 59 58 56 55 55 57 57 57 57 56 56 59 62 62 60 59 57 54 50 47 48